Tracking 29892 objects as of 21-Nov-2024
HD Live streaming from Space Station
objects crossing your sky now

THORAD AGENA D DEB

Track THORAD AGENA D DEB now!
10-day predictions


NORAD ID: 4187
Int'l Code: 1969-082BA
Perigee: 585.6 km
Apogee: 611.0 km
Inclination: 70.0 °
Period: 96.5 minutes
Semi major axis: 6969 km
RCS: 0.0694 m2 (small)
Launch date: September 30, 1969
Source: United States (US)
Launch site: AIR FORCE WESTERN TEST RANGE (AFWTR)

Note: This is SATELLITE DEBRIS
Your satellite tracking list
Your tracking list is empty




NASA's NSSDC Master Catalog

Two Line Element Set (TLE):
1 04187U 69082BA  24325.89437466  .00038064  00000-0  37090-2 0  9990
2 04187  69.9579 127.9495 0018239 237.9574 121.9811 14.92173566903452
Source of the keplerian elements: AFSPC